Tracking 29892 objects as of 21-Nov-2024
HD Live streaming from Space Station
objects crossing your sky now

FENGYUN 1C DEB

Track FENGYUN 1C DEB now!
10-day predictions


NORAD ID: 29884
Int'l Code: 1999-025GE
Perigee: 742.2 km
Apogee: 806.8 km
Inclination: 99.6 °
Period: 100.2 minutes
Semi major axis: 7145 km
RCS: 0.0639 m2 (small)
Launch date: May 10, 1999
Source: People's Republic of China (PRC)
Launch site: Taiyaun Space Center, China (TSC)

Note: This is SATELLITE DEBRIS
Your satellite tracking list
Your tracking list is empty




NASA's NSSDC Master Catalog

Two Line Element Set (TLE):
1 29884U 99025GE  24325.40086777  .00004183  00000-0  14026-2 0  9992
2 29884  99.6070 306.4295 0045206 174.6064 344.6376 14.37315596929780
Source of the keplerian elements: AFSPC